Time,TemperatureF,DewpointF,PressureIn,WindDirection,WindDirectionDegrees,WindSpeedMPH,WindSpeedGustMPH,Humidity,HourlyPrecipIn,Conditions,Clouds,dailyrainin,SoftwareType,DateUTC
2013-01-30 00:09:00,32.1,30.0,30.12,NE,54,0.0,-999.0,92,-99.99,,,0.00,weatherlink.com 1.10,2013-01-30 05:09:00,
2013-01-30 00:24:00,32.1,30.0,30.12,NE,54,0.0,-999.0,93,-99.99,,,0.00,weatherlink.com 1.10,2013-01-30 05:24:00,
2013-01-30 00:39:00,32.2,31.0,30.11,NE,54,0.0,-999.0,94,-99.99,,,0.00,weatherlink.com 1.10,2013-01-30 05:39:00,
2013-01-30 00:53:00,32.2,31.0,30.11,NE,54,0.0,-999.0,95,-99.99,,,0.00,weatherlink.com 1.10,2013-01-30 05:53:00,
2013-01-30 01:08:00,32.2,32.0,30.10,NE,54,0.0,-999.0,97,-99.99,,,0.01,weatherlink.com 1.10,2013-01-30 06:08:00,
2013-01-30 01:24:00,32.2,32.0,30.10,NE,54,0.0,-999.0,98,-99.99,,,0.01,weatherlink.com 1.10,2013-01-30 06:24:00,
2013-01-30 01:39:00,32.4,32.0,30.09,NE,54,0.0,-999.0,99,-99.99,,,0.01,weatherlink.com 1.10,2013-01-30 06:39:00,
2013-01-30 01:54:00,32.4,32.0,30.09,NE,54,0.0,-999.0,99,-99.99,,,0.01,weatherlink.com 1.10,2013-01-30 06:54:00,
2013-01-30 02:09:00,32.4,32.0,30.09,NE,54,0.0,-999.0,99,-99.99,,,0.01,weatherlink.com 1.10,2013-01-30 07:09:00,
2013-01-30 02:24:00,32.4,32.0,30.08,NE,54,0.0,-999.0,100,-99.99,,,0.01,weatherlink.com 1.10,2013-01-30 07:24:00,
2013-01-30 02:39:00,32.4,32.0,30.07,NE,54,0.0,-999.0,100,-99.99,,,0.02,weatherlink.com 1.10,2013-01-30 07:39:00,
2013-01-30 02:54:00,32.4,32.0,30.05,NE,54,0.0,-999.0,100,-99.99,,,0.02,weatherlink.com 1.10,2013-01-30 07:54:00,
2013-01-30 03:08:00,32.4,32.0,30.05,NE,54,0.0,-999.0,100,-99.99,,,0.02,weatherlink.com 1.10,2013-01-30 08:08:00,
2013-01-30 03:24:00,32.4,32.0,30.04,NE,54,0.0,-999.0,100,-99.99,,,0.02,weatherlink.com 1.10,2013-01-30 08:24:00,
2013-01-30 03:38:00,32.4,32.0,30.02,NE,54,0.0,-999.0,100,-99.99,,,0.02,weatherlink.com 1.10,2013-01-30 08:38:00,
2013-01-30 03:53:00,32.5,33.0,30.02,NE,54,0.0,-999.0,100,-99.99,,,0.02,weatherlink.com 1.10,2013-01-30 08:53:00,
2013-01-30 04:09:00,32.5,33.0,30.02,NE,54,0.0,-999.0,100,-99.99,,,0.02,weatherlink.com 1.10,2013-01-30 09:09:00,
2013-01-30 04:23:00,32.5,33.0,30.01,NE,54,0.0,-999.0,100,-99.99,,,0.02,weatherlink.com 1.10,2013-01-30 09:23:00,
2013-01-30 04:39:00,32.5,33.0,30.01,NE,54,0.0,-999.0,100,-99.99,,,0.02,weatherlink.com 1.10,2013-01-30 09:39:00,
2013-01-30 04:54:00,32.5,33.0,29.99,NE,54,0.0,-999.0,100,-99.99,,,0.02,weatherlink.com 1.10,2013-01-30 09:54:00,
2013-01-30 05:09:00,32.5,33.0,29.99,NE,54,0.0,-999.0,100,-99.99,,,0.02,weatherlink.com 1.10,2013-01-30 10:09:00,
2013-01-30 05:24:00,32.5,33.0,29.98,NE,54,0.0,-999.0,100,-99.99,,,0.02,weatherlink.com 1.10,2013-01-30 10:24:00,
2013-01-30 05:39:00,32.5,33.0,29.98,NE,54,0.0,-999.0,100,-99.99,,,0.02,weatherlink.com 1.10,2013-01-30 10:39:00,
2013-01-30 05:54:00,32.5,33.0,29.98,NE,54,0.0,-999.0,100,-99.99,,,0.02,weatherlink.com 1.10,2013-01-30 10:54:00,
2013-01-30 06:09:00,32.5,33.0,29.98,NE,54,0.0,-999.0,100,-99.99,,,0.02,weatherlink.com 1.10,2013-01-30 11:09:00,
2013-01-30 06:24:00,32.5,33.0,29.96,NE,54,0.0,-999.0,100,-99.99,,,0.02,weatherlink.com 1.10,2013-01-30 11:24:00,
2013-01-30 06:39:00,32.5,33.0,29.95,NE,54,0.0,-999.0,100,-99.99,,,0.02,weatherlink.com 1.10,2013-01-30 11:39:00,
2013-01-30 06:54:00,32.7,33.0,29.95,NE,54,0.0,-999.0,100,-99.99,,,0.02,weatherlink.com 1.10,2013-01-30 11:54:00,
2013-01-30 07:09:00,32.5,33.0,29.94,NE,54,0.0,-999.0,100,-99.99,,,0.02,weatherlink.com 1.10,2013-01-30 12:09:00,
2013-01-30 07:24:00,32.5,33.0,29.93,NE,54,0.0,-999.0,100,-99.99,,,0.02,weatherlink.com 1.10,2013-01-30 12:24:00,
2013-01-30 07:39:00,32.7,33.0,29.92,NE,54,0.0,-999.0,100,-99.99,,,0.02,weatherlink.com 1.10,2013-01-30 12:39:00,
2013-01-30 07:54:00,32.8,33.0,29.91,NE,54,0.0,-999.0,100,-99.99,,,0.02,weatherlink.com 1.10,2013-01-30 12:54:00,
2013-01-30 08:09:00,32.9,33.0,29.90,NE,54,0.0,-999.0,100,-99.99,,,0.02,weatherlink.com 1.10,2013-01-30 13:09:00,
2013-01-30 08:23:00,32.9,33.0,29.90,NE,54,0.0,-999.0,100,-99.99,,,0.02,weatherlink.com 1.10,2013-01-30 13:23:00,
2013-01-30 08:39:00,33.1,33.0,29.89,NE,54,0.0,-999.0,100,-99.99,,,0.02,weatherlink.com 1.10,2013-01-30 13:39:00,
2013-01-30 08:54:00,33.2,33.0,29.88,NE,54,0.0,-999.0,100,-99.99,,,0.02,weatherlink.com 1.10,2013-01-30 13:54:00,
2013-01-30 09:09:00,33.5,34.0,29.87,NE,54,0.0,-999.0,100,-99.99,,,0.02,weatherlink.com 1.10,2013-01-30 14:09:00,
2013-01-30 09:24:00,33.8,34.0,29.85,NE,54,0.0,-999.0,100,-99.99,,,0.02,weatherlink.com 1.10,2013-01-30 14:24:00,
2013-01-30 09:39:00,34.1,34.0,29.84,NE,54,0.0,-999.0,100,-99.99,,,0.02,weatherlink.com 1.10,2013-01-30 14:39:00,
2013-01-30 09:54:00,34.3,34.0,29.83,NE,54,0.0,-999.0,100,-99.99,,,0.02,weatherlink.com 1.10,2013-01-30 14:54:00,
2013-01-30 10:09:00,34.6,35.0,29.83,NE,54,0.0,-999.0,100,-99.99,,,0.02,weatherlink.com 1.10,2013-01-30 15:09:00,
2013-01-30 10:24:00,34.9,35.0,29.82,NE,54,0.0,-999.0,100,-99.99,,,0.02,weatherlink.com 1.10,2013-01-30 15:24:00,
2013-01-30 10:39:00,35.2,35.0,29.81,NE,54,0.0,-999.0,100,-99.99,,,0.02,weatherlink.com 1.10,2013-01-30 15:39:00,
2013-01-30 10:53:00,35.3,35.0,29.79,NE,54,0.0,-999.0,100,-99.99,,,0.02,weatherlink.com 1.10,2013-01-30 15:53:00,
2013-01-30 11:09:00,35.5,36.0,29.78,NE,54,0.0,-999.0,100,-99.99,,,0.02,weatherlink.com 1.10,2013-01-30 16:09:00,
2013-01-30 11:24:00,35.9,36.0,29.77,NE,54,0.0,-999.0,100,-99.99,,,0.02,weatherlink.com 1.10,2013-01-30 16:24:00,
2013-01-30 11:39:00,36.2,36.0,29.76,NE,54,0.0,-999.0,100,-99.99,,,0.02,weatherlink.com 1.10,2013-01-30 16:39:00,
2013-01-30 11:54:00,36.5,37.0,29.74,NE,54,0.0,-999.0,100,-99.99,,,0.02,weatherlink.com 1.10,2013-01-30 16:54:00,
2013-01-30 12:09:00,36.8,37.0,29.73,NE,54,0.0,-999.0,100,-99.99,,,0.02,weatherlink.com 1.10,2013-01-30 17:09:00,
2013-01-30 12:24:00,37.2,37.0,29.72,NE,54,0.0,-999.0,100,-99.99,,,0.02,weatherlink.com 1.10,2013-01-30 17:24:00,
2013-01-30 12:38:00,37.6,38.0,29.70,NE,54,0.0,-999.0,100,-99.99,,,0.02,weatherlink.com 1.10,2013-01-30 17:38:00,
2013-01-30 12:53:00,38.0,38.0,29.70,NE,54,0.0,-999.0,100,-99.99,,,0.02,weatherlink.com 1.10,2013-01-30 17:53:00,
2013-01-30 13:09:00,38.3,38.0,29.67,NE,54,0.0,-999.0,100,-99.99,,,0.02,weatherlink.com 1.10,2013-01-30 18:09:00,
2013-01-30 13:23:00,38.6,39.0,29.65,NE,54,0.0,-999.0,100,-99.99,,,0.02,weatherlink.com 1.10,2013-01-30 18:23:00,
2013-01-30 13:39:00,38.5,39.0,29.65,NE,54,0.0,-999.0,100,-99.99,,,0.02,weatherlink.com 1.10,2013-01-30 18:39:00,
2013-01-30 13:53:00,38.5,39.0,29.63,NE,54,0.0,-999.0,100,-99.99,,,0.02,weatherlink.com 1.10,2013-01-30 18:53:00,
2013-01-30 14:09:00,38.3,38.0,29.62,NE,54,0.0,-999.0,100,-99.99,,,0.02,weatherlink.com 1.10,2013-01-30 19:09:00,
2013-01-30 14:24:00,38.0,38.0,29.61,NE,54,0.0,-999.0,100,-99.99,,,0.02,weatherlink.com 1.10,2013-01-30 19:24:00,
2013-01-30 14:39:00,37.9,38.0,29.61,NE,54,0.0,-999.0,100,-99.99,,,0.02,weatherlink.com 1.10,2013-01-30 19:39:00,
2013-01-30 14:53:00,38.3,38.0,29.60,NE,54,0.0,-999.0,100,-99.99,,,0.02,weatherlink.com 1.10,2013-01-30 19:53:00,
2013-01-30 15:09:00,38.8,39.0,29.59,NE,54,0.0,-999.0,100,-99.99,,,0.02,weatherlink.com 1.10,2013-01-30 20:09:00,
2013-01-30 15:24:00,38.8,39.0,29.58,NE,54,0.0,-999.0,100,-99.99,,,0.02,weatherlink.com 1.10,2013-01-30 20:24:00,
2013-01-30 15:39:00,39.1,39.0,29.58,NE,54,0.0,-999.0,100,-99.99,,,0.02,weatherlink.com 1.10,2013-01-30 20:39:00,
2013-01-30 15:53:00,38.8,39.0,29.56,NE,54,0.0,-999.0,100,-99.99,,,0.02,weatherlink.com 1.10,2013-01-30 20:53:00,
2013-01-30 16:09:00,38.9,39.0,29.56,NE,54,0.0,-999.0,100,-99.99,,,0.02,weatherlink.com 1.10,2013-01-30 21:09:00,
2013-01-30 16:24:00,40.9,41.0,29.56,NE,54,0.0,-999.0,100,-99.99,,,0.02,weatherlink.com 1.10,2013-01-30 21:24:00,
2013-01-30 16:39:00,44.6,45.0,29.57,NE,52,0.0,-999.0,100,-99.99,,,0.02,weatherlink.com 1.10,2013-01-30 21:39:00,
2013-01-30 16:54:00,50.4,50.0,29.57,South,169,3.0,-999.0,100,-99.99,,,0.02,weatherlink.com 1.10,2013-01-30 21:54:00,
2013-01-30 17:09:00,52.3,52.0,29.56,SW,216,0.0,-999.0,100,-99.99,,,0.02,weatherlink.com 1.10,2013-01-30 22:09:00,
2013-01-30 17:24:00,52.9,53.0,29.56,South,171,0.0,-999.0,100,-99.99,,,0.02,weatherlink.com 1.10,2013-01-30 22:24:00,
2013-01-30 17:39:00,53.2,53.0,29.55,SSW,196,3.0,-999.0,100,-99.99,,,0.02,weatherlink.com 1.10,2013-01-30 22:39:00,
2013-01-30 17:54:00,53.6,54.0,29.54,WSW,246,0.0,-999.0,100,-99.99,,,0.02,weatherlink.com 1.10,2013-01-30 22:54:00,
2013-01-30 18:09:00,53.8,54.0,29.54,SW,224,6.0,-999.0,100,-99.99,,,0.02,weatherlink.com 1.10,2013-01-30 23:09:00,
2013-01-30 18:24:00,54.5,55.0,29.54,SW,224,6.0,-999.0,100,-99.99,,,0.02,weatherlink.com 1.10,2013-01-30 23:24:00,
2013-01-30 18:39:00,54.8,55.0,29.53,SSW,210,2.0,-999.0,100,-99.99,,,0.02,weatherlink.com 1.10,2013-01-30 23:39:00,
2013-01-30 18:54:00,55.0,55.0,29.52,SSW,193,1.0,-999.0,100,-99.99,,,0.02,weatherlink.com 1.10,2013-01-30 23:54:00,
2013-01-30 19:09:00,55.1,55.0,29.52,SW,227,0.0,-999.0,100,-99.99,,,0.02,weatherlink.com 1.10,2013-01-31 00:09:00,
2013-01-30 19:24:00,55.0,55.0,29.52,South,182,2.0,-999.0,100,-99.99,,,0.02,weatherlink.com 1.10,2013-01-31 00:24:00,
2013-01-30 19:38:00,55.1,55.0,29.52,SW,217,3.0,-999.0,100,-99.99,,,0.02,weatherlink.com 1.10,2013-01-31 00:38:00,
2013-01-30 19:54:00,55.3,55.0,29.52,SSW,213,2.0,-999.0,100,-99.99,,,0.02,weatherlink.com 1.10,2013-01-31 00:54:00,
2013-01-30 20:09:00,55.1,55.0,29.51,SSW,200,0.0,-999.0,100,-99.99,,,0.02,weatherlink.com 1.10,2013-01-31 01:09:00,
2013-01-30 20:24:00,55.0,55.0,29.51,SSW,200,0.0,-999.0,100,-99.99,,,0.02,weatherlink.com 1.10,2013-01-31 01:24:00,
2013-01-30 20:39:00,55.0,55.0,29.50,SSW,200,2.0,-999.0,100,-99.99,,,0.02,weatherlink.com 1.10,2013-01-31 01:39:00,
2013-01-30 20:54:00,54.8,55.0,29.49,South,172,0.0,-999.0,100,-99.99,,,0.02,weatherlink.com 1.10,2013-01-31 01:54:00,
2013-01-30 21:09:00,54.8,55.0,29.48,South,182,0.0,-999.0,100,-99.99,,,0.02,weatherlink.com 1.10,2013-01-31 02:09:00,
2013-01-30 21:23:00,54.7,55.0,29.48,South,182,0.0,-999.0,100,-99.99,,,0.02,weatherlink.com 1.10,2013-01-31 02:23:00,
2013-01-30 21:38:00,54.1,54.0,29.46,ESE,119,0.0,-999.0,100,-99.99,,,0.02,weatherlink.com 1.10,2013-01-31 02:38:00,
2013-01-30 21:54:00,54.1,54.0,29.47,West,265,1.0,-999.0,100,-99.99,,,0.02,weatherlink.com 1.10,2013-01-31 02:54:00,
2013-01-30 22:09:00,54.1,54.0,29.46,West,265,0.0,-999.0,100,-99.99,,,0.02,weatherlink.com 1.10,2013-01-31 03:09:00,
2013-01-30 22:24:00,53.8,54.0,29.46,SE,130,0.0,-999.0,100,-99.99,,,0.02,weatherlink.com 1.10,2013-01-31 03:24:00,
2013-01-30 22:39:00,54.5,55.0,29.46,SSW,196,0.0,-999.0,100,-99.99,,,0.02,weatherlink.com 1.10,2013-01-31 03:39:00,
2013-01-30 22:54:00,54.4,54.0,29.45,SSW,192,1.0,-999.0,100,-99.99,,,0.02,weatherlink.com 1.10,2013-01-31 03:54:00,
2013-01-30 23:09:00,54.4,54.0,29.45,SSE,168,2.0,-999.0,100,-99.99,,,0.02,weatherlink.com 1.10,2013-01-31 04:09:00,
2013-01-30 23:24:00,54.8,55.0,29.43,SSW,192,0.0,-999.0,100,-99.99,,,0.03,weatherlink.com 1.10,2013-01-31 04:24:00,
2013-01-30 23:39:00,54.8,55.0,29.42,SSW,192,1.0,-999.0,100,-99.99,,,0.03,weatherlink.com 1.10,2013-01-31 04:39:00,
2013-01-30 23:54:00,55.0,55.0,29.40,SSW,203,2.0,-999.0,100,-99.99,,,0.03,weatherlink.com 1.10,2013-01-31 04:54:00,